Weather in Sinitsyno

Russia / Republic of Crimea     45°14′16″N   35°15′02″E
temp.,
°C
wind,
m/s
gust,
m/s
humid.,
%
clouds,
%
prec.,
mm/h
press.,
hPa
HPBL,
m
28 july, wed
wed2800:00+23se355810 0.0 1018130
03:00+22se45640 0.0 101893
06:00+21sse33620 0.0 101861
09:00+27se33426 0.0 1018484
12:00+30e33370 0.0 10171055
15:00+29ene54420 0.0 1016868
18:00+29e44430 0.0 1015713
21:00+25se33500 0.0 101554
29 july, thu
thu2900:00+23w46615 0.0 1015128
03:00+22w45674 0.0 1015119
06:00+22wnw45700 0.0 1015132
09:00+27nnw22500 0.0 1014365
12:00+30ne32370 0.0 1014948
15:00+31ene43390 0.0 1013898
18:00+32sse55330 0.0 1011712
21:00+27sw58410 0.0 1011171
30 july, fri
fri3000:00+25w510510 0.0 1012246
03:00+24nw45550 0.0 1011128
06:00+23se11540 0.0 101141
09:00+28nw11402 0.0 1011429
12:00+32ene33353 0.0 10101339
15:00+33se763622 0.0 1009967
18:00+30se454718 0.8 1009351
21:00+25ssw226694 4.1 100933
31 july, sat
sat3100:00+24w597341 0.0 1009193
03:00+24wnw47750 0.1 1010156
06:00+24nw34790 0.0 1010172
09:00+27n22640 0.0 1010530
12:00+29nne43570 0.0 1010765
15:00+29ne555917 0.0 1010594
18:00+28ne335610 0.0 1010329
21:00+26e11640 0.0 101011
1 august, sun
sun100:00+25wsw11660 0.0 101012
03:00+24wnw22690 0.0 101043
06:00+24w23710 0.0 101165
09:00+29nw11530 0.0 1011418
12:00+31nne43440 0.0 10101282
15:00+31ne544512 0.0 1010980
18:00+31nne21420 0.0 1009533
21:00+27s11520 0.0 101011